www.pogodaiklimat.ru

Погода и климат >> Архив погоды >> Оман >> Qarn Alam


ПОГОДА в Qarn Alam

  • Прогноз погоды в Qarn Alam
  • Монитор погоды в Qarn Alam
  • Климат города

АРХИВ ПОГОДЫ в Qarn Alam

Время (UTC), дата Ветер
(напр.,м/с)
 
Видим.   Явления Облачность Т
(С)
Тd
(С)
f
(%)
Тe
(С)
Тes
(С)
Комфортность P
(гПа)
Po
(гПа)
Тmin
(С)
Tmax
(С)
R
(мм)
R24
(мм)
S
(см)
18 16.06 С 12 н/о н/о +38.2 +1.4 10 +35 +35 очень
жарко
1001.3 985.5 +47.5
21 16.06 СЗ 10 н/о н/о +34.4 +1.2 12 +31 +31 жарко 1001.5 985.5
00 17.06 СЗ 7 н/о н/о +30.9 +2.6 16 +28 +28 жарко 1001.7 985.5
03 17.06 СЗ 4 н/о н/о +29.5 +3.3 19 +27 +27 жарко 1002.8 986.5
06 17.06 СЗ 9 н/о н/о +39.6 -1.2 8 +36 +36 очень
жарко
1002.3 986.5 +28.2
09 17.06 СЗ 11 н/о н/о +43.2 -7.8 4 +39 +39 очень
жарко
1000.2 984.6
12 17.06 СЗ 10 н/о н/о +44.6 -11.3 3 +40 +40 очень
жарко
998.1 982.6
15 17.06 СЗ 7 н/о н/о +41.4 -10.8 3 +37 +37 очень
жарко
998.7 983.1
18 17.06 СЗ 3 н/о н/о +35.0 -7.5 6 +31 +31 жарко 1000.2 984.3 +45.1
21 17.06 СЗ 5 н/о н/о +32.7 -1.8 11 +29 +29 жарко 1000.1 984.0
00 18.06 С 3 н/о н/о +28.4 +0.2 16 +26 +26 жарко 1000.1 983.8
03 18.06 Ю 1 н/о н/о +29.5 +1.3 16 +27 +27 жарко 1001.7 985.5
06 18.06 СЗ 2 н/о н/о +39.5 +0.5 9 +36 +36 очень
жарко
1001.7 985.9 +26.6
09 18.06 З 4 н/о н/о +43.1 -2.8 6 +39 +39 очень
жарко
999.4 983.9
12 18.06 ЮЗ 6 н/о н/о +43.8 -8.2 4 +39 +39 очень
жарко
997.6 982.1
15 18.06 З 4 н/о н/о +41.8 -6.2 5 +37 +37 очень
жарко
998.1 982.5
18 18.06 З 4 н/о н/о +35.5 -4.2 8 +31 +31 жарко 999.9 984.0 +44.8
21 18.06 Ю 4 н/о н/о +30.9 +9.0 26 +37 +37 очень
душно
1000.3 983.9
00 19.06 ЮВ 3 н/о н/о +27.7 +21.7 70 +36 +36 очень
душно
1000.6 984.4
03 19.06 Ю 4 н/о н/о +27.0 +22.0 74 +35 +35 очень
душно
1002.2 985.9
06 19.06 Ю 4 н/о н/о +33.1 +21.0 49 +40 +40 очень
душно
1002.6 986.6 +26.2
09 19.06 Ю 3 н/о н/о +40.8 +12.5 19 +40 +40 очень
жарко
1000.9 985.2
12 19.06 ЮЗ 5 н/о н/о +43.4 +4.7 10 +41 +41 опасность
перегрева
999.1 983.6
15 19.06 Ю 4 н/о н/о +42.3 +11.0 16 +39 +39 очень
жарко
999.6 984.1
18 19.06 Ю 10 н/о н/о +35.8 +20.7 41 +42 +42 опасность
перегрева
1001.2 985.4 +44.2
21 19.06 Ю 6 н/о н/о +30.1 +22.8 65 +40 +40 очень
душно
1001.8 985.7
00 20.06 Ю 5 н/о н/о +28.0 +22.8 73 +37 +37 очень
душно
1001.8 985.6
03 20.06 ЮВ 4 н/о н/о +27.5 +23.4 78 +37 +37 очень
душно
1004.2 987.9
06 20.06 ЮВ 3 н/о н/о +32.4 +22.6 56 +42 +42 опасность
перегрева
1004.2 988.2 +27.0
09 20.06 ЮЗ 3 н/о н/о +39.7 +17.7 28 +43 +43 опасность
перегрева
1002.0 986.3
12 20.06 ЮВ 2 н/о н/о +43.0 +5.7 11 +40 +40 очень
жарко
999.8 984.3
15 20.06 ЮВ 5 н/о н/о +41.7 +4.7 11 +39 +39 очень
жарко
1000.7 985.0
18 20.06 Ю 10 н/о н/о +33.5 +21.9 51 +42 +42 опасность
перегрева
1002.4 986.4 +44.1
21 20.06 ЮЗ 9 н/о н/о +28.7 +23.2 72 +39 +39 очень
душно
1002.7 986.5
00 21.06 Ю 6 н/о н/о +26.1 +23.6 86 +35 +35 очень
душно
1003.3 987.0
03 21.06 Ю 5 н/о н/о +26.0 +23.7 87 +35 +35 очень
душно
1005.3 988.9
06 21.06 Ю 6 н/о н/о +31.7 +23.2 61 +42 +42 опасность
перегрева
1005.8 989.7 +25.5
09 21.06 ЮЗ 4 н/о н/о +38.8 +18.1 30 +42 +42 опасность
перегрева
1002.9 987.1
12 21.06 Ю 5 н/о н/о +42.4 +12.5 17 +42 +42 опасность
перегрева
1000.6 985.0
15 21.06 Ю 4 н/о н/о +41.1 +10.1 16 +40 +40 очень
жарко
1001.0 985.4
18 21.06 ЮЗ 9 н/о н/о +34.2 +21.9 49 +43 +43 опасность
перегрева
1002.9 987.0 +42.8
21 21.06 ЮЗ 8 н/о н/о +29.4 +22.5 66 +38 +38 очень
душно
1002.9 986.7
00 22.06 ЮЗ 8 н/о н/о +26.7 +22.3 77 +35 +35 очень
душно
1002.0 985.7
03 22.06 ЮЗ 8 н/о н/о +25.9 +22.8 83 +34 +34 очень
душно
1004.2 987.8
06 22.06 ЮЗ 3 н/о н/о +32.3 +21.4 53 +40 +40 очень
душно
1005.2 989.1 +25.5
09 22.06 ЮЗ 6 н/о н/о +39.5 +16.3 26 +42 +42 опасность
перегрева
1002.6 986.8
12 22.06 З 6 н/о н/о +43.1 +9.5 14 +42 +42 опасность
перегрева
999.6 984.1
15 22.06 З 5 н/о н/о +41.0 +9.3 15 +39 +39 очень
жарко
999.9 984.3
18 22.06 ЮЗ 5 н/о н/о +35.5 +9.3 20 +34 +34 очень
жарко
1000.9 985.0 +43.3
21 22.06 ЮЗ 8 н/о н/о +30.3 +22.4 63 +40 +40 очень
душно
1001.1 985.0
00 23.06 ЮЗ 5 н/о н/о +28.2 +21.9 69 +36 +36 очень
душно
1001.6 985.4
03 23.06 ЮЗ 8 н/о н/о +26.9 +23.1 80 +36 +36 очень
душно
1003.0 986.7
06 23.06 З 7 н/о н/о +34.8 +19.9 42 +41 +41 опасность
перегрева
1003.4 987.4 +26.5
09 23.06 З 5 н/о н/о +41.3 +14.1 20 +42 +42 опасность
перегрева
1000.9 985.3
12 23.06 З 5 н/о н/о +43.6 +7.7 12 +41 +41 опасность
перегрева
998.4 982.9

 

Местоположение метеостанции Qarn Alam (Оман): широта 21.37 долгота 57.05 высота над уровнем моря 139 м.

В архиве по умолчанию представлена погода в Qarn Alam за последнюю неделю. Архивные данные за месяц целиком и за предыдущие месяцы, начиная с января 2011 года, Вы можете получить, выбрав интересующий диапазон дат из раскрывающегося списка и нажав кнопку "Ввод!".


*Определитесь, кто Вы:
робот инопланетянин человек

Внимание! Время в таблицах - всемирное. Для получения местного времени необходимо прибавить поправку, которая в Qarn Alam равна 4 ч.

Смотрите также архив погоды в соседних городах и на ближайших метеорологических станциях:

Погода в Umzamaim (Оман) (64 км)
Погода в Fahud (Оман) (122 км)
Погода в Adam (Оман) (122 км)
Погода в Joba (Оман) (137 км)
Погода в Yaaloni (Оман) (159 км)
Погода в Al Mudhaibi (Оман) (169 км)
Погода в Nizwa (Оман) (172 км)
Погода в Bahla (Оман) (181 км)
Погода в Saiq (Оман) (198 км)
Погода в Duqm (Оман) (204 км)

Пояснения к столбцам:

Ветер - указаны скорость ветра в м/с - средняя за 10 мин, порывы в срок и между сроками (в фигурных скобках) и направление, откуда дует ветер: С - северный, СВ - северо-восточный, В - восточный, ЮВ - юго-восточный, Ю - южный, ЮЗ - юго-западный, З - западный, СЗ - северо-западный.
Видимость - горизонтальная дальность видимости в метрах или километрах. При видимости от 1 до 10 км при отсутствии осадков обычно наблюдается дымка, при ухудшении видимости до 1 км и менее - туман. В сухую погоду видимость может ухудшаться дымом, пылью или мглою.
Явления - указаны атмосферные явления, наблюдавшиеся в срок или в последний час перед сроком; фигурными скобками обозначены явления, наблюдавшиеся между сроками (за 1-3 часа до срока); квадратными скобками обозначены град или гололедные отложения с указанием их диаметра в мм.
Облачность - указаны через наклонную черту общая и нижняя облачность в баллах и высота нижней границы облаков в метрах; квадратными скобками обозначены формы облаков: Ci - перистые, Cs - перисто-слоистые, Cc - перисто-кучевые, Ac - высококучевые, As - высокослоистые, Sc - слоисто-кучевые, Ns - слоисто-дождевые, Cu - кучевые, Cb - кучево-дождевые. Подробнее классификацию облаков см. в Атласе облаков (PDF).
T - Температура воздуха - температура, измеренная на высоте 2 м над землей.
Td - Температура точки росы - температура, при понижении до которой содержащийся в воздухе водяной пар достигнет насыщения.
f - Относительная влажность воздуха - влажноcть воздуха, измеренная на высоте 2 м над землей.
Te - Эффективная температура - температура, которую ощущает одетый по сезону человек в тени. Характеристика душности погоды. При расчете учитывается влияние влажности воздуха и скорости ветра на теплоощущения человека.
Tes - Эффективная температура на солнце - температура, которую ощущает человек, с поправкой на солнечный нагрев. Характеристика знойности погоды. Зависит от высоты солнца над горизонтом, облачности и скорости ветра. Ночью, в пасмурную погоду, а также при ветре 12 м/с и более поправка равна нулю.
P - Атмосферное давление - приведенное к уровню моря атмосферное давление.
Po - Атмосферное давление - измеренное на уровне метеостанции атмосферное давление.
Tmin - Минимальная температура - минимум температуры воздуха на высоте 2 м над землей.
Tmax - Максимальная температура - максимум температуры воздуха на высоте 2 м над землей.
R - Количество осадков - Количество выпавших осадков за период времени, мм. При наведении курсора мыши на число - период времени, за который выпало указанное количество осадков.
R24 - Количество осадков - Количество выпавших осадков за 24 часа, мм.
S - Снежный покров - Высота снежного покрова, см. При наведении курсора мыши на число - состояние снежного покрова и степень покрытия местности в баллах.